When you browse on this site, cookies collect data to enhance your experience and personalize the content and advertising you see.
Visit our Privacy Policy to learn more. By continuing to use the site, you agree to this use of cookies and data.
  • In Lithuania
  • List of Countries
  • For 7 days
  • Water Temperature
  • Weather Map
  • Weather Widgets
  • user-avatar
    Login

    Hourly Weather Djelfa

    Today, 28 March, Saturday

    Time Temperature Precipitation Wind Pressure Humidity
    00:00 +8°C° 0 mm 4 mps 660 mmHg 73%
    01:00 +9°C° 0.1 mm 3 mps 659 mmHg 75%
    02:00 +9°C° 0.1 mm 2 mps 659 mmHg 78%
    03:00 +10°C° 0.1 mm 1 mps 659 mmHg 80%
    04:00 +9°C° 0.1 mm 1 mps 659 mmHg 82%
    05:00 +8°C° 0.1 mm 2 mps 659 mmHg 85%
    06:00 +8°C° 0 mm 2 mps 660 mmHg 87%
    07:00 +8°C° 0.2 mm 2 mps 660 mmHg 85%
    08:00 +8°C° 0.2 mm 2 mps 660 mmHg 83%
    09:00 +8°C° 0.2 mm 2 mps 660 mmHg 81%
    10:00 +8°C° 0.7 mm 3 mps 660 mmHg 84%
    11:00 +8°C° 0.7 mm 3 mps 660 mmHg 86%
    12:00 +6°C° 0.7 mm 4 mps 659 mmHg 88%
    13:00 +7°C° 0.1 mm 4 mps 659 mmHg 82%
    14:00 +8°C° 0.1 mm 4 mps 659 mmHg 75%
    15:00 +10°C° 0.1 mm 4 mps 659 mmHg 68%
    16:00 +10°C° 0.1 mm 4 mps 659 mmHg 66%
    17:00 +10°C° 0.1 mm 4 mps 660 mmHg 64%
    18:00 +10°C° 0.1 mm 4 mps 660 mmHg 62%
    19:00 +7°C° 0 mm 5 mps 660 mmHg 69%
    20:00 +6°C° 0 mm 5 mps 661 mmHg 76%
    21:00 +4°C° 0 mm 6 mps 661 mmHg 82%
    22:00 +5°C° 0 mm 5 mps 661 mmHg 84%
    23:00 +3°C° 0 mm 5 mps 661 mmHg 86%

    Tomorrow, 29 March, Sunday

    Time Temperature Precipitation Wind Pressure Humidity
    00:00 +3°C° 0 mm 5 mps 661 mmHg 87%
    01:00 +2°C° 0 mm 5 mps 661 mmHg 90%
    02:00 +2°C° 0 mm 6 mps 660 mmHg 92%
    03:00 +1°C° 0 mm 6 mps 660 mmHg 95%
    04:00 +1°C° 0 mm 6 mps 660 mmHg 92%
    05:00 +1°C° 0 mm 6 mps 660 mmHg 89%
    06:00 +1°C° 0 mm 5 mps 660 mmHg 87%
    07:00 +2°C° 0 mm 6 mps 661 mmHg 78%
    08:00 +3°C° 0 mm 6 mps 661 mmHg 70%
    09:00 +5°C° 0 mm 7 mps 662 mmHg 61%
    10:00 +6°C° 0 mm 7 mps 662 mmHg 57%
    11:00 +8°C° 0 mm 6 mps 662 mmHg 53%
    12:00 +10°C° 0 mm 6 mps 662 mmHg 49%
    13:00 +10°C° 0 mm 7 mps 662 mmHg 48%
    14:00 +10°C° 0 mm 7 mps 661 mmHg 47%
    15:00 +11°C° 0 mm 7 mps 661 mmHg 46%
    16:00 +10°C° 0 mm 7 mps 661 mmHg 52%
    17:00 +9°C° 0 mm 6 mps 661 mmHg 57%
    18:00 +8°C° 0 mm 6 mps 661 mmHg 63%
    19:00 +8°C° 0 mm 5 mps 661 mmHg 68%
    20:00 +8°C° 0 mm 3 mps 661 mmHg 74%
    21:00 +7°C° 0 mm 2 mps 662 mmHg 80%
    22:00 +8°C° 0 mm 1 mps 661 mmHg 82%
    23:00 +7°C° 0 mm 1 mps 661 mmHg 85%

    Day after tomorrow, 30 March, Monday

    Time Temperature Precipitation Wind Pressure Humidity
    00:00 +7°C° 0 mm 1 mps 661 mmHg 87%
    01:00 +7°C° 0 mm 1 mps 660 mmHg 86%
    02:00 +7°C° 0 mm 1 mps 660 mmHg 86%
    03:00 +7°C° 0 mm 1 mps 660 mmHg 85%
    04:00 +7°C° 0 mm 1 mps 660 mmHg 83%
    05:00 +6°C° 0 mm 2 mps 660 mmHg 81%
    06:00 +6°C° 0 mm 2 mps 659 mmHg 79%
    07:00 +8°C° 0 mm 3 mps 660 mmHg 66%
    08:00 +10°C° 0 mm 4 mps 661 mmHg 54%
    09:00 +12°C° 0 mm 4 mps 662 mmHg 42%
    10:00 +13°C° 0 mm 5 mps 661 mmHg 39%
    11:00 +14°C° 0 mm 6 mps 661 mmHg 36%
    12:00 +15°C° 0 mm 7 mps 661 mmHg 33%
    13:00 +15°C° 0 mm 7 mps 661 mmHg 39%
    14:00 +14°C° 0 mm 6 mps 660 mmHg 45%
    15:00 +13°C° 0 mm 6 mps 660 mmHg 51%
    16:00 +13°C° 0 mm 5 mps 659 mmHg 49%
    17:00 +13°C° 0 mm 3 mps 659 mmHg 48%
    18:00 +14°C° 0 mm 2 mps 659 mmHg 46%
    19:00 +13°C° 0 mm 2 mps 659 mmHg 49%
    20:00 +13°C° 0 mm 2 mps 659 mmHg 52%
    21:00 +11°C° 0 mm 3 mps 660 mmHg 55%
    22:00 +12°C° 0.1 mm 2 mps 660 mmHg 56%
    23:00 +12°C° 0.1 mm 2 mps 659 mmHg 57%

    31 March, Tuesday

    Time Temperature Precipitation Wind Pressure Humidity
    00:00 +12°C° 0.1 mm 2 mps 659 mmHg 59%
    01:00 +10°C° 0 mm 3 mps 659 mmHg 59%
    02:00 +10°C° 0 mm 4 mps 659 mmHg 60%
    03:00 +9°C° 0 mm 5 mps 658 mmHg 60%
    04:00 +9°C° 0 mm 5 mps 658 mmHg 57%
    05:00 +9°C° 0 mm 6 mps 658 mmHg 54%
    06:00 +8°C° 0 mm 6 mps 658 mmHg 51%
    07:00 +10°C° 0 mm 7 mps 659 mmHg 45%
    08:00 +11°C° 0 mm 9 mps 659 mmHg 39%
    09:00 +12°C° 0 mm 11 mps 660 mmHg 33%
    10:00 +13°C° 0 mm 11 mps 660 mmHg 32%
    11:00 +14°C° 0 mm 12 mps 659 mmHg 31%
    12:00 +15°C° 0 mm 13 mps 659 mmHg 31%
    13:00 +17°C° 0 mm 13 mps 659 mmHg 30%
    14:00 +18°C° 0 mm 13 mps 658 mmHg 29%
    15:00 +19°C° 0 mm 12 mps 658 mmHg 28%
    16:00 +18°C° 0 mm 11 mps 658 mmHg 29%
    17:00 +18°C° 0 mm 9 mps 658 mmHg 29%
    18:00 +17°C° 0 mm 8 mps 657 mmHg 30%
    19:00 +16°C° 0 mm 7 mps 658 mmHg 36%
    20:00 +15°C° 0 mm 6 mps 658 mmHg 41%
    21:00 +14°C° 0 mm 5 mps 659 mmHg 46%
    22:00 +12°C° 0 mm 4 mps 658 mmHg 58%
    23:00 +11°C° 0 mm 3 mps 658 mmHg 69%

    1 April, Wednesday

    Time Temperature Precipitation Wind Pressure Humidity
    00:00 +9°C° 0 mm 2 mps 657 mmHg 80%
    01:00 +10°C° 0 mm 1 mps 657 mmHg 80%
    02:00 +10°C° 0 mm 1 mps 657 mmHg 80%
    03:00 +9°C° 0 mm 1 mps 656 mmHg 80%
    04:00 +9°C° 0 mm 1 mps 656 mmHg 78%
    05:00 +9°C° 0 mm 1 mps 656 mmHg 76%
    06:00 +9°C° 0 mm 1 mps 656 mmHg 75%
    07:00 +10°C° 0 mm 2 mps 657 mmHg 68%
    08:00 +11°C° 0 mm 3 mps 658 mmHg 61%
    09:00 +13°C° 0 mm 5 mps 658 mmHg 54%
    10:00 +14°C° 0 mm 6 mps 658 mmHg 50%
    11:00 +15°C° 0 mm 8 mps 658 mmHg 46%
    12:00 +16°C° 0 mm 9 mps 659 mmHg 42%
    13:00 +16°C° 0 mm 9 mps 658 mmHg 42%
    14:00 +16°C° 0 mm 8 mps 658 mmHg 41%
    15:00 +16°C° 0 mm 8 mps 658 mmHg 40%
    16:00 +15°C° 0 mm 8 mps 658 mmHg 46%
    17:00 +14°C° 0 mm 7 mps 658 mmHg 51%
    18:00 +12°C° 0 mm 7 mps 658 mmHg 56%
    19:00 +11°C° 0 mm 7 mps 658 mmHg 61%
    20:00 +10°C° 0 mm 7 mps 659 mmHg 67%
    21:00 +9°C° 0 mm 7 mps 659 mmHg 72%
    22:00 +8°C° 0 mm 6 mps 659 mmHg 75%
    23:00 +8°C° 0 mm 5 mps 659 mmHg 78%

    2 April, Thursday

    Time Temperature Precipitation Wind Pressure Humidity
    00:00 +7°C° 0 mm 4 mps 658 mmHg 82%
    01:00 +7°C° 0 mm 5 mps 658 mmHg 80%
    02:00 +6°C° 0 mm 5 mps 657 mmHg 77%
    03:00 +5°C° 0 mm 6 mps 657 mmHg 75%
    04:00 +5°C° 0 mm 6 mps 657 mmHg 75%
    05:00 +5°C° 0 mm 6 mps 657 mmHg 74%
    06:00 +5°C° 0 mm 7 mps 657 mmHg 74%
    07:00 +5°C° 0 mm 8 mps 657 mmHg 70%
    08:00 +5°C° 0 mm 9 mps 657 mmHg 67%
    09:00 +5°C° 0 mm 10 mps 658 mmHg 63%
    10:00 +6°C° 0.2 mm 9 mps 658 mmHg 60%
    11:00 +6°C° 0.2 mm 8 mps 658 mmHg 56%
    12:00 +6°C° 0.2 mm 7 mps 658 mmHg 52%
    13:00 +6°C° 0.1 mm 8 mps 658 mmHg 53%
    14:00 +7°C° 0.1 mm 9 mps 657 mmHg 54%
    15:00 +7°C° 0.1 mm 10 mps 657 mmHg 55%
    16:00 +6°C° 0.1 mm 9 mps 657 mmHg 59%
    17:00 +5°C° 0.1 mm 9 mps 657 mmHg 63%
    18:00 +4°C° 0.1 mm 8 mps 656 mmHg 67%
    19:00 +3°C° 0.2 mm 9 mps 657 mmHg 68%
    20:00 +2°C° 0.2 mm 10 mps 657 mmHg 69%
    21:00 +2°C° 0.2 mm 11 mps 657 mmHg 70%
    22:00 +1°C° 0 mm 11 mps 658 mmHg 74%
    23:00 0°C° 0 mm 12 mps 658 mmHg 78%
    Show more